Overview Statistics Trail Chart Weather Telemetry Raw packets
 

This is the latest recevied weather packets stored in our database for station/object LY3FF-10. If no packets are shown the sender has not sent any weather packets the latest 10 day(s).

<< 28 29 30 31 32 33 34 >>
Time Temp. Humidity Pressure Rain* Wind** Luminosity Snow
1788028330 17.78° C 77% 992.7 hPa - - - -
1788027460 17.78° C 77% 992.8 hPa - - - -
1788026615 17.78° C 77% 992.8 hPa - - - -
1788025840 17.78° C 76% 993 hPa - - - -
1788025030 17.78° C 75% 993.3 hPa - - - -
1788024134 17.78° C 74% 993.3 hPa - - - -
1788023260 17.78° C 74% 993.3 hPa - - - -
1788022384 17.78° C 72% 993.4 hPa - - - -
1788021644 17.78° C 71% 993.4 hPa - - - -
1788020800 18.33° C 70% 993.4 hPa - - - -
1788019915 18.33° C 69% 993.5 hPa - - - -
1788019180 18.33° C 67% 993.5 hPa - - - -
1788018280 18.89° C 65% 993.5 hPa - - - -
1788017525 19.44° C 64% 993.5 hPa - - - -
1788016662 20° C 60% 993.5 hPa - - - -
1788015820 21.67° C 56% 993.3 hPa - - - -
1788014990 22.78° C 52% 992.9 hPa - - - -
1788014240 23.33° C 51% 992.7 hPa - - - -
1788013500 23.33° C 50% 992.6 hPa - - - -
1788012750 23.89° C 50% 992.7 hPa - - - -
1788011975 25° C 49% 992.9 hPa - - - -
1788011204 24.44° C 49% 992.8 hPa - - - -
1788010364 23.89° C 49% 992.9 hPa - - - -
1788009645 23.33° C 49% 993 hPa - - - -
1788008890 23.89° C 49% 993.1 hPa - - - -

* Rain since midnight (hover to see other rain measurements)
** Current wind speed in m/s (hover to see current wind gust speed)